Content
SEND FEEDBACK

Daily
Averages
Monthly
Summary
Canada

VICTORIA, BRITISH COLUMBIA


Home > North America > Canada > British Columbia
Elevation: 62 feet     Latitude: 48 39N     Longitude: 123 26W

WEATHER
 
SELECT A DAY
Number of Records: 195,231;   Date Range: 1/1/95 - 7/28/14
 
SHARE

PRINT THIS DATA

[ ← Previous Day ]
WEATHER ALMANAC - NOVEMBER 9, 2013
[ Next Day → ]
[ °C ]   °F
Weather ElementAverageHighLow
Temperature44.9 °F48.2 °F (12:00 pm)41 °F (1:00 am)
Dewpoint43 °F44.6 °F (10:00 am)39.2 °F (1:00 am)
Humidity92.4 %100 % (3:00 am)76 % (4:00 pm)
Barometer30.13 in30.16 in (2:00 am)30.11 in (2:00 pm)
Wind Speed3.7 mph5.8 mph (12:00 pm)
Weather ElementAverage
Visibility21.2 mi
Wind DirectionWSW (238.3 °)

Weather ElementTotal
Precipitation---
Heating Degree Days20.4 (Base 65)
Averaged from 29 records on November 9, 2013
WEATHER CONDITIONS BREAKOUT
WIND DIRECTION BREAKOUT
WEATHER BY HOUR - NOVEMBER 9, 2013
[ °C ]   °F
Local TimeTemperatureDewpointHumidityBarometerVisibilityWind DirectionWind SpeedGust SpeedPrecipitationEventsConditions
1:00 AM41.0 °F39.2 °F93 %30.14 in30.0 miVariable2.3 mphPartly Cloudy
2:00 AM41.0 °F39.2 °F93 %30.16 in15.0 miWSW (250°)4.6 mphMostly Cloudy
3:00 AM42.8 °F42.8 °F100 %30.15 in15.0 miCalmMostly Cloudy
4:00 AM43.0 °F43.0 °F98 %30.14 in15.0 miWNW (290°)1.2 mphOvercast
4:00 AM42.8 °F42.8 °F100 %30.14 in15.0 miCalmOvercast
5:00 AM44.6 °F42.8 °F93 %30.14 in15.0 miWest (280°)2.3 mphOvercast
6:00 AM42.8 °F42.8 °F100 %30.14 in20.0 miWSW (240°)3.5 mphOvercast
6:30 AM44.6 °F42.8 °F93 %30.13 in20.0 miWest (280°)2.3 mphOvercast
7:00 AM42.8 °F42.8 °F100 %30.13 in20.0 miSW (230°)3.5 mphOvercast
8:00 AM44.6 °F42.8 °F93 %30.13 in15.0 miSSW (210°)3.5 mphOvercast
9:00 AM44.6 °F42.8 °F93 %30.13 in20.0 miWest (270°)3.5 mphOvercast
10:00 AM46.0 °F44.0 °F90 %30.14 in19.0 miWest (280°)4.6 mphOvercast
10:00 AM46.4 °F44.6 °F93 %30.13 in20.0 miWNW (290°)4.6 mphOvercast
11:00 AM46.4 °F44.6 °F93 %30.14 in20.0 miWest (270°)3.5 mphOvercast
12:00 PM48.2 °F44.6 °F87 %30.13 in20.0 miWNW (290°)5.8 mphOvercast
1:00 PM48.2 °F42.8 °F82 %30.12 in30.0 miWest (280°)5.8 mphOvercast
2:00 PM48.2 °F42.8 °F82 %30.11 in30.0 miWNW (290°)5.8 mphOvercast
3:00 PM48.2 °F44.6 °F87 %30.12 in30.0 miNW (320°)5.8 mphRainLight Rain
4:00 PM47.0 °F42.0 °F76 %30.12 in28.0 miNorth (10°)5.8 mphRainLight Rain
4:00 PM46.4 °F42.8 °F87 %30.12 in30.0 miNorth (360°)4.6 mphRainLight Rain
5:00 PM46.4 °F42.8 °F87 %30.13 in20.0 miNW (310°)4.6 mphRainLight Rain
6:00 PM44.6 °F42.8 °F93 %30.13 in20.0 miSW (230°)2.3 mphRainLight Rain
6:41 PM44.6 °F42.8 °F93 %30.13 in20.0 miWest (260°)2.3 mphOvercast
7:00 PM44.6 °F44.6 °F100 %30.13 in20.0 miWest (280°)3.5 mphOvercast
8:00 PM44.6 °F44.6 °F100 %30.14 in30.0 miWest (270°)3.5 mphOvercast
9:00 PM44.6 °F42.8 °F93 %30.14 in20.0 miWest (280°)4.6 mphOvercast
10:00 PM44.0 °F43.0 °F94 %30.15 in19.0 miWest (280°)3.5 mphPartly Cloudy
10:00 PM44.6 °F42.8 °F93 %30.15 in20.0 miWest (280°)3.5 mphOvercast
11:00 PM44.6 °F42.8 °F93 %30.15 in20.0 miWest (280°)5.8 mphOvercast
Hourly data recorded from CYYJ, located miles away from Victoria, British Columbia







STORIES FROM OUR PARTNERS